Location: Gisborne
(38.6530°S, 178.0040°E)
Time: 04:42:15
(UTC+13:00)

SeaSat 1 - Pass Details

Date: 24 January 2019
Orbit: 744 x 748 km, 108.0° (Epoch: 19 February)

Event Time Altitude Azimuth Distance (km) Brightness Sun altitude
Rises 23:36:46 0° 157° (SSE) 3,220 6.3 -27.3°
Reaches altitude 10° 23:39:03 10° 159° (SSE) 2,290 5.4 -27.5°
Enters shadow 23:43:59 73° 239° (WSW) 789 2.5 -27.9°
